| time (UTC) | temp F | wind direction | speed knots | gust knots | rain 1hr in | rain 24hr in | rain mn in | humidity % | barometer mb |
| 20260509150153 | 102 | 135 | 2.6 | 7.0 | 0.00 | 0.00 | 0.00 | 100 | 1010.4 |
| 20260509145653 | 102 | 112 | 2.6 | 7.0 | 0.00 | 0.00 | 0.00 | 100 | 1010.5 |
| 20260509145424 | 101 | 180 | 3.5 | 8.7 | 0.00 | 0.00 | 0.00 | 100 | 1010.4 |
| 20260509144652 | 101 | 147 | 5.2 | 8.7 | 0.00 | 0.00 | 0.00 | 100 | 1010.4 |
| 20260509144425 | 101 | 140 | 3.5 | 7.0 | 0.00 | 0.00 | 0.00 | 1 | 1010.4 |
| 20260509143651 | 101 | 217 | 3.5 | 6.1 | 0.00 | 0.00 | 0.00 | 100 | 1010.4 |
| 20260509143155 | 101 | 140 | 1.7 | 7.8 | 0.00 | 0.00 | 0.00 | 100 | 1010.2 |
| 20260509143150 | 102 | 205 | 2.6 | 5.2 | 0.00 | 0.00 | 0.00 | 100 | 1010.4 |
| 20260509142146 | 101 | 184 | 4.3 | 7.8 | 0.00 | 0.00 | 0.00 | 100 | 1010.0 |
| 20260509141646 | 101 | 125 | 2.6 | 6.1 | 0.00 | 0.00 | 0.00 | 100 | 1009.9 |
| 20260509141143 | 101 | 165 | 3.5 | 6.1 | 0.00 | 0.00 | 0.00 | 100 | 1009.7 |
| 20260509140644 | 101 | 142 | 0.9 | 5.2 | 0.00 | 0.00 | 0.00 | 100 | 1009.5 |
| 20260509140143 | 102 | 135 | 0.0 | 5.2 | 0.00 | 0.00 | 0.00 | 3 | 1009.5 |
| 20260509135640 | 102 | 140 | 0.0 | 5.2 | 0.00 | 0.00 | 0.00 | 7 | 1009.4 |
| 20260509135408 | 101 | 143 | 1.7 | 5.2 | 0.00 | 0.00 | 0.00 | 26 | 1009.4 |
| 20260509134637 | 101 | 126 | 0.0 | 4.3 | 0.00 | 0.00 | 0.00 | 100 | 1009.5 |
| 20260509134132 | 101 | 153 | 0.0 | 4.3 | 0.00 | 0.00 | 0.00 | 100 | 1009.6 |
| 20260509133848 | 101 | 153 | 0.0 | 4.3 | 0.00 | 0.00 | 0.00 | 100 | 1009.7 |
| 20260509133600 | 101 | 167 | 0.0 | 1.7 | 0.00 | 0.00 | 0.00 | 100 | 1009.6 |
| 20260509132831 | 101 | 167 | 0.0 | 4.3 | 0.00 | 0.00 | 0.00 | 100 | 1009.7 |
| 20260509132058 | 100 | 167 | 1.7 | 4.3 | 0.00 | 0.00 | 0.00 | 100 | 1010.2 |
| 20260509131545 | 100 | 151 | 0.0 | 0.0 | 0.00 | 0.00 | 0.00 | 100 | 1010.0 |
| 20260509131041 | 100 | 151 | 0.0 | 0.0 | 0.00 | 0.00 | 0.00 | 100 | 1010.4 |
| 20260509130537 | 100 | 151 | 0.0 | 0.0 | 0.00 | 0.00 | 0.00 | 100 | 1010.7 |
| 20260509130031 | 100 | 151 | 0.0 | 0.0 | 0.00 | 0.00 | 0.00 | 100 | 1010.7 |
| 20260509125754 | 100 | 151 | 0.0 | 0.0 | 0.00 | 0.00 | 0.00 | 100 | 1010.7 |
| 20260509125017 | 100 | 151 | 0.0 | 0.0 | 0.00 | 0.00 | 0.00 | 100 | 1010.5 |
| 20260509124512 | 101 | 151 | 0.0 | 0.0 | 0.00 | 0.00 | 0.00 | 100 | 1010.4 |
| 20260509124000 | 100 | 151 | 0.0 | 0.0 | 0.00 | 0.00 | 0.00 | 100 | 1010.4 |
| 20260509123452 | 101 | 151 | 0.0 | 0.0 | 0.00 | 0.00 | 0.00 | 100 | 1010.3 |
| 20260509122945 | 101 | 151 | 0.0 | 0.0 | 0.00 | 0.00 | 0.00 | 100 | 1010.3 |
| 20260509122445 | 101 | 151 | 0.0 | 0.0 | 0.00 | 0.00 | 0.00 | 100 | 1009.9 |
| 20260509121930 | 101 | 151 | 0.0 | 0.0 | 0.00 | 0.00 | 0.00 | 100 | 1009.9 |
| 20260509121415 | 101 | 151 | 0.0 | 0.0 | 0.00 | 0.00 | 0.00 | 100 | 1010.0 |
| 20260509120907 | 100 | 151 | 0.0 | 0.0 | 0.00 | 0.00 | 0.00 | 100 | 1010.0 |
| 20260509120402 | 101 | 151 | 0.0 | 0.0 | 0.00 | 0.00 | 0.00 | 100 | 1010.0 |
| 20260509115859 | 100 | 151 | 0.0 | 0.0 | 0.00 | 0.00 | 0.00 | 100 | 1009.9 |
| 20260509115357 | 101 | 151 | 0.0 | 0.0 | 0.00 | 0.00 | 0.00 | 100 | 1010.2 |
| 20260509114849 | 100 | 151 | 0.0 | 0.0 | 0.00 | 0.00 | 0.00 | 100 | 1010.4 |
| 20260509114345 | 101 | 151 | 0.0 | 0.0 | 0.00 | 0.00 | 0.00 | 100 | 1010.5 |
| 20260509113839 | 101 | 151 | 0.0 | 0.0 | 0.00 | 0.00 | 0.00 | 100 | 1010.6 |
| 20260509113338 | 101 | 151 | 0.0 | 0.0 | 0.00 | 0.00 | 0.00 | 100 | 1010.8 |
| 20260509112839 | 101 | 151 | 0.0 | 0.0 | 0.00 | 0.00 | 0.00 | 100 | 1010.9 |
| 20260509112559 | 101 | 151 | 0.0 | 0.0 | 0.00 | 0.00 | 0.00 | 100 | 1011.1 |
| 20260509111828 | 101 | 151 | 0.0 | 0.0 | 0.00 | 0.00 | 0.00 | 100 | 1011.2 |
| 20260509111322 | 101 | 151 | 0.0 | 0.0 | 0.00 | 0.00 | 0.00 | 100 | 1011.2 |
| 20260509111036 | 101 | 151 | 0.0 | 0.0 | 0.00 | 0.00 | 0.00 | 100 | 1011.2 |
| 20260509110238 | 101 | 151 | 0.0 | 0.0 | 0.00 | 0.00 | 0.00 | 100 | 1011.3 |
| 20260509105736 | 101 | 151 | 0.0 | 0.0 | 0.00 | 0.00 | 0.00 | 100 | 1011.3 |
| 20260509105233 | 101 | 151 | 0.0 | 0.0 | 0.00 | 0.00 | 0.00 | 100 | 1011.3 |
| 20260509104728 | 101 | 151 | 0.0 | 0.0 | 0.00 | 0.00 | 0.00 | 100 | 1011.4 |
| 20260509104216 | 101 | 151 | 0.0 | 0.0 | 0.00 | 0.00 | 0.00 | 100 | 1011.4 |
| 20260509103652 | 100 | 151 | 0.0 | 0.0 | 0.00 | 0.00 | 0.00 | 100 | 1011.2 |
| 20260509103152 | 100 | 151 | 0.0 | 0.0 | 0.00 | 0.00 | 0.00 | 100 | 1011.4 |
| 20260509102648 | 100 | 151 | 0.0 | 0.0 | 0.00 | 0.00 | 0.00 | 100 | 1011.4 |
| 20260509102145 | 101 | 151 | 0.0 | 0.0 | 0.00 | 0.00 | 0.00 | 100 | 1011.3 |
| 20260509101908 | 100 | 151 | 0.0 | 0.0 | 0.00 | 0.00 | 0.00 | 100 | 1011.3 |
| 20260509101131 | 101 | 151 | 0.0 | 0.0 | 0.00 | 0.00 | 0.00 | 100 | 1011.1 |
| 20260509100626 | 100 | 151 | 0.0 | 0.0 | 0.00 | 0.00 | 0.00 | 100 | 1010.9 |
| 20260509100122 | 100 | 151 | 0.0 | 0.0 | 0.00 | 0.00 | 0.00 | 100 | 1010.7 |
| 20260509095614 | 101 | 151 | 0.0 | 0.0 | 0.00 | 0.00 | 0.00 | 100 | 1010.5 |
| 20260509095106 | 100 | 151 | 0.0 | 0.0 | 0.00 | 0.00 | 0.00 | 100 | 1010.2 |
| 20260509094603 | 100 | 151 | 0.0 | 0.0 | 0.00 | 0.00 | 0.00 | 100 | 1009.9 |
| 20260509094055 | 100 | 151 | 0.0 | 0.0 | 0.00 | 0.00 | 0.00 | 100 | 1009.7 |
| 20260509093558 | 100 | 151 | 0.0 | 0.0 | 0.00 | 0.00 | 0.00 | 100 | 1009.7 |
| 20260509093050 | 100 | 151 | 0.0 | 0.0 | 0.00 | 0.00 | 0.00 | 100 | 1009.7 |
| 20260509092537 | 100 | 151 | 0.0 | 0.0 | 0.00 | 0.00 | 0.00 | 100 | 1009.6 |
| 20260509092014 | 100 | 151 | 0.0 | 0.0 | 0.00 | 0.00 | 0.00 | 100 | 1009.6 |
| 20260509091507 | 100 | 151 | 0.0 | 0.0 | 0.00 | 0.00 | 0.00 | 100 | 1009.6 |
| 20260509091000 | 100 | 151 | 0.0 | 0.0 | 0.00 | 0.00 | 0.00 | 100 | 1009.6 |
| 20260509090500 | 100 | 151 | 0.0 | 0.0 | 0.00 | 0.00 | 0.00 | 100 | 1009.7 |
| 20260509085957 | 100 | 151 | 0.0 | 0.0 | 0.00 | 0.00 | 0.00 | 100 | 1009.7 |
| 20260509085443 | 100 | 151 | 0.0 | 0.0 | 0.00 | 0.00 | 0.00 | 100 | 1009.7 |
| 20260509084939 | 100 | 151 | 0.0 | 0.0 | 0.00 | 0.00 | 0.00 | 100 | 1009.7 |
| 20260509084434 | 100 | 151 | 0.0 | 0.0 | 0.00 | 0.00 | 0.00 | 100 | 1009.7 |
| 20260509083929 | 100 | 151 | 0.0 | 0.0 | 0.00 | 0.00 | 0.00 | 100 | 1009.7 |
| 20260509083411 | 100 | 151 | 0.0 | 0.0 | 0.00 | 0.00 | 0.00 | 100 | 1010.0 |
| 20260509082859 | 100 | 151 | 0.0 | 0.0 | 0.00 | 0.00 | 0.00 | 100 | 1010.2 |
| 20260509082353 | 100 | 151 | 0.0 | 0.0 | 0.00 | 0.00 | 0.00 | 100 | 1010.2 |
| 20260509081853 | 100 | 151 | 0.0 | 0.0 | 0.00 | 0.00 | 0.00 | 100 | 1010.4 |
| 20260509081622 | 100 | 151 | 0.0 | 0.0 | 0.00 | 0.00 | 0.00 | 100 | 1010.3 |
| 20260509080838 | 100 | 151 | 0.0 | 0.0 | 0.00 | 0.00 | 0.00 | 100 | 1010.3 |
| 20260509080604 | 100 | 151 | 0.0 | 0.0 | 0.00 | 0.00 | 0.00 | 100 | 1010.0 |
| 20260509075829 | 100 | 151 | 0.0 | 0.0 | 0.00 | 0.00 | 0.00 | 100 | 1010.2 |
| 20260509075314 | 100 | 151 | 0.0 | 0.0 | 0.00 | 0.00 | 0.00 | 100 | 1010.2 |
| 20260509074814 | 100 | 151 | 0.0 | 0.0 | 0.00 | 0.00 | 0.00 | 100 | 1010.2 |
| 20260509074303 | 100 | 151 | 0.0 | 0.0 | 0.00 | 0.00 | 0.00 | 82 | 1010.2 |
| 20260509073758 | 100 | 151 | 0.0 | 0.0 | 0.00 | 0.00 | 0.00 | 69 | 1010.2 |
| 20260509073254 | 100 | 151 | 0.0 | 0.0 | 0.00 | 0.00 | 0.00 | 58 | 1010.2 |
| 20260509072753 | 100 | 151 | 0.0 | 0.0 | 0.00 | 0.00 | 0.00 | 45 | 1010.4 |
| 20260509072250 | 100 | 151 | 0.0 | 0.0 | 0.00 | 0.00 | 0.00 | 34 | 1010.4 |
| 20260509072018 | 100 | 151 | 0.0 | 0.0 | 0.00 | 0.00 | 0.00 | 31 | 1010.5 |
| 20260509071240 | 100 | 151 | 0.0 | 0.0 | 0.00 | 0.00 | 0.00 | 29 | 1010.6 |
| 20260509070723 | 100 | 151 | 0.0 | 0.0 | 0.00 | 0.00 | 0.00 | 24 | 1010.6 |
| 20260509070214 | 101 | 151 | 0.0 | 0.0 | 0.00 | 0.00 | 0.00 | 21 | 1010.7 |
| 20260509065713 | 100 | 151 | 0.0 | 0.0 | 0.00 | 0.00 | 0.00 | 20 | 1010.5 |
| 20260509065213 | 100 | 151 | 0.0 | 0.0 | 0.00 | 0.00 | 0.00 | 16 | 1010.6 |
| 20260509064652 | 101 | 151 | 0.0 | 0.0 | 0.00 | 0.00 | 0.00 | 15 | 1010.3 |
| 20260509064141 | 100 | 151 | 0.0 | 0.0 | 0.00 | 0.00 | 0.00 | 14 | 1010.2 |
| 20260509063637 | 100 | 151 | 0.0 | 0.0 | 0.00 | 0.00 | 0.00 | 12 | 1010.2 |
| 20260509063129 | 101 | 151 | 0.0 | 0.0 | 0.00 | 0.00 | 0.00 | 10 | 1010.2 |
| 20260509062626 | 100 | 151 | 0.0 | 0.0 | 0.00 | 0.00 | 0.00 | 8 | 1010.3 |
| 20260509062121 | 101 | 151 | 0.0 | 6.1 | 0.00 | 0.00 | 0.00 | 7 | 1010.4 |
| 20260509061848 | 100 | 151 | 0.0 | 6.1 | 0.00 | 0.00 | 0.00 | 7 | 1010.3 |
| 20260509061612 | 100 | 149 | 0.0 | 5.2 | 0.00 | 0.00 | 0.00 | 6 | 1010.0 |
| 20260509060555 | 100 | 149 | 0.0 | 6.1 | 0.00 | 0.00 | 0.00 | 5 | 1009.7 |
| 20260509060056 | 100 | 153 | 3.5 | 6.1 | 0.00 | 0.00 | 0.00 | 5 | 1009.6 |
| 20260509055827 | 100 | 125 | 0.0 | 1.7 | 0.00 | 0.00 | 0.00 | 4 | 1009.5 |
| 20260509055051 | 100 | 125 | 0.0 | 7.0 | 0.00 | 0.00 | 0.00 | 4 | 1009.7 |
| 20260509054545 | 101 | 125 | 1.7 | 7.8 | 0.00 | 0.00 | 0.00 | 3 | 1009.9 |
| 20260509054045 | 101 | 144 | 0.0 | 7.8 | 0.00 | 0.00 | 0.00 | 3 | 1009.9 |
| 20260509053533 | 101 | 161 | 0.0 | 4.3 | 0.00 | 0.00 | 0.00 | 3 | 1009.7 |
| 20260509053300 | 101 | 160 | 1.7 | 5.2 | 0.00 | 0.00 | 0.00 | 3 | 1009.5 |
| 20260509052525 | 101 | 140 | 1.7 | 5.2 | 0.00 | 0.00 | 0.00 | 4 | 1009.2 |
| 20260509052016 | 101 | 109 | 0.0 | 3.5 | 0.00 | 0.00 | 0.00 | 4 | 1009.1 |
| 20260509051506 | 101 | 146 | 0.0 | 5.2 | 0.00 | 0.00 | 0.00 | 4 | 1008.9 |
| 20260509050957 | 101 | 123 | 3.5 | 5.2 | 0.00 | 0.00 | 0.00 | 3 | 1008.9 |
| 20260509050456 | 101 | 116 | 0.0 | 5.2 | 0.00 | 0.00 | 0.00 | 2 | 1009.0 |
| 20260509045949 | 101 | 137 | 0.0 | 5.2 | 0.00 | 0.00 | 0.00 | 1 | 1009.1 |
| 20260509045715 | 101 | 143 | 0.0 | 0.0 | 0.00 | 0.00 | 0.00 | 1 | 1009.0 |
| 20260509045214 | 100 | 143 | 0.0 | 0.0 | 0.00 | 0.00 | 0.00 | 100 | 1009.0 |
| 20260509044443 | 101 | 143 | 0.0 | 0.0 | 0.00 | 0.00 | 0.00 | 100 | 1009.1 |
| 20260509043938 | 101 | 143 | 0.0 | 4.3 | 0.00 | 0.00 | 0.00 | 100 | 1009.2 |
| 20260509043420 | 101 | 143 | 0.0 | 4.3 | 0.00 | 0.00 | 0.00 | 100 | 1009.2 |
| 20260509042917 | 101 | 133 | 0.9 | 4.3 | 0.00 | 0.00 | 0.00 | 100 | 1009.2 |
| 20260509042418 | 101 | 109 | 0.0 | 0.0 | 0.00 | 0.00 | 0.00 | 100 | 1009.3 |
| 20260509041918 | 101 | 109 | 0.0 | 0.0 | 0.00 | 0.00 | 0.00 | 100 | 1009.5 |
| 20260509041412 | 101 | 109 | 0.0 | 0.0 | 0.00 | 0.00 | 0.00 | 100 | 1009.5 |
| 20260509040913 | 101 | 109 | 0.0 | 0.0 | 0.00 | 0.00 | 0.00 | 100 | 1009.4 |
| 20260509040359 | 101 | 109 | 0.0 | 0.0 | 0.00 | 0.00 | 0.00 | 100 | 1009.6 |
| 20260509035902 | 101 | 109 | 0.0 | 0.0 | 0.00 | 0.00 | 0.00 | 100 | 1009.5 |
| 20260509035351 | 100 | 109 | 0.0 | 0.0 | 0.00 | 0.00 | 0.00 | 100 | 1009.4 |
| 20260509034848 | 101 | 109 | 0.0 | 0.0 | 0.00 | 0.00 | 0.00 | 100 | 1009.3 |
| 20260509034843 | 101 | 109 | 0.0 | 0.0 | 0.00 | 0.00 | 0.00 | 100 | 1009.3 |
| 20260509033837 | 100 | 109 | 0.0 | 0.0 | 0.00 | 0.00 | 0.00 | 100 | 1009.2 |
| 20260509033334 | 101 | 109 | 0.0 | 0.0 | 0.00 | 0.00 | 0.00 | 100 | 1009.2 |
| 20260509032817 | 101 | 109 | 0.0 | 0.0 | 0.00 | 0.00 | 0.00 | 100 | 1009.3 |
| 20260509032530 | 101 | 109 | 0.0 | 0.0 | 0.00 | 0.00 | 0.00 | 100 | 1009.4 |
| 20260509031749 | 101 | 109 | 0.0 | 0.0 | 0.00 | 0.00 | 0.00 | 100 | 1009.4 |
| 20260509031241 | 100 | 109 | 0.0 | 0.0 | 0.00 | 0.00 | 0.00 | 100 | 1009.3 |
| 20260509030739 | 101 | 109 | 0.0 | 0.0 | 0.00 | 0.00 | 0.00 | 100 | 1009.3 |
| 20260509030201 | 101 | 109 | 0.0 | 0.0 | 0.00 | 0.00 | 0.00 | 100 | 1009.3 |
| 20260509025655 | 101 | 109 | 0.0 | 0.0 | 0.00 | 0.00 | 0.00 | 100 | 1009.3 |
| 20260509025145 | 101 | 109 | 0.0 | 0.0 | 0.00 | 0.00 | 0.00 | 100 | 1009.2 |
| 20260509024645 | 101 | 109 | 0.0 | 0.0 | 0.00 | 0.00 | 0.00 | 100 | 1009.1 |
| 20260509024140 | 101 | 109 | 0.0 | 0.0 | 0.00 | 0.00 | 0.00 | 100 | 1009.0 |
| 20260509023910 | 101 | 109 | 0.0 | 0.0 | 0.00 | 0.00 | 0.00 | 100 | 1009.0 |
| 20260509023136 | 101 | 109 | 0.0 | 0.0 | 0.00 | 0.00 | 0.00 | 100 | 1008.9 |
| 20260509022904 | 101 | 109 | 0.0 | 0.0 | 0.00 | 0.00 | 0.00 | 100 | 1008.8 |
| 20260509022130 | 101 | 109 | 0.0 | 3.5 | 0.00 | 0.00 | 0.00 | 100 | 1008.8 |
| 20260509021625 | 102 | 109 | 0.0 | 5.2 | 0.00 | 0.00 | 0.00 | 100 | 1008.8 |
| 20260509021120 | 102 | 111 | 2.6 | 5.2 | 0.00 | 0.00 | 0.00 | 100 | 1008.6 |
| 20260509020614 | 102 | 142 | 0.0 | 0.0 | 0.00 | 0.00 | 0.00 | 100 | 1008.6 |
| 20260509020340 | 102 | 142 | 0.0 | 0.9 | 0.00 | 0.00 | 0.00 | 100 | 1008.5 |
| 20260509015603 | 102 | 142 | 0.0 | 4.3 | 0.00 | 0.00 | 0.00 | 100 | 1008.5 |
| 20260509015059 | 103 | 142 | 0.9 | 4.3 | 0.00 | 0.00 | 0.00 | 100 | 1008.4 |
| 20260509014555 | 102 | 129 | 0.9 | 4.3 | 0.00 | 0.00 | 0.00 | 100 | 1008.4 |
| 20260509014054 | 103 | 102 | 2.6 | 4.3 | 0.00 | 0.00 | 0.00 | 100 | 1008.3 |
| 20260509013552 | 102 | 130 | 0.0 | 5.2 | 0.00 | 0.00 | 0.00 | 100 | 1008.2 |
| 20260509013053 | 103 | 146 | 0.0 | 5.2 | 0.00 | 0.00 | 0.00 | 100 | 1008.2 |
| 20260509012552 | 103 | 156 | 2.6 | 6.1 | 0.00 | 0.00 | 0.00 | 100 | 1008.3 |
| 20260509012052 | 103 | 136 | 2.6 | 6.1 | 0.00 | 0.00 | 0.00 | 100 | 1008.3 |
| 20260509011552 | 103 | 156 | 0.0 | 0.0 | 0.00 | 0.00 | 0.00 | 100 | 1008.3 |
| 20260509011048 | 103 | 156 | 0.0 | 0.0 | 0.00 | 0.00 | 0.00 | 100 | 1008.3 |
| 20260509010537 | 103 | 156 | 0.0 | 1.7 | 0.00 | 0.00 | 0.00 | 100 | 1008.3 |
| 20260509010248 | 103 | 156 | 0.0 | 5.2 | 0.00 | 0.00 | 0.00 | 100 | 1008.3 |
| 20260509005511 | 103 | 136 | 0.0 | 5.2 | 0.00 | 0.00 | 0.00 | 100 | 1008.2 |
| 20260509005013 | 103 | 147 | 2.6 | 4.3 | 0.00 | 0.00 | 0.00 | 100 | 1008.2 |
| 20260509004502 | 103 | 122 | 0.0 | 3.5 | 0.00 | 0.00 | 0.00 | 100 | 1008.2 |
| 20260509003947 | 103 | 130 | 0.0 | 0.0 | 0.00 | 0.00 | 0.00 | 100 | 1008.2 |
| 20260509003442 | 104 | 130 | 0.0 | 0.0 | 0.00 | 0.00 | 0.00 | 100 | 1008.2 |
| 20260509002942 | 103 | 130 | 0.0 | 0.0 | 0.00 | 0.00 | 0.00 | 100 | 1008.2 |
| 20260509002431 | 103 | 130 | 0.0 | 0.0 | 0.00 | 0.00 | 0.00 | 100 | 1008.2 |
| 20260509002157 | 103 | 130 | 0.0 | 0.0 | 0.00 | 0.00 | 0.00 | 100 | 1008.3 |
| 20260509001422 | 104 | 130 | 0.0 | 0.0 | 0.00 | 0.00 | 0.00 | 100 | 1008.2 |
| 20260509000916 | 103 | 130 | 0.0 | 0.0 | 0.00 | 0.00 | 0.00 | 100 | 1008.2 |
| 20260509000410 | 103 | 130 | 0.0 | 4.3 | 0.00 | 0.00 | 0.00 | 100 | 1008.1 |
| 20260508235902 | 103 | 130 | 0.0 | 6.1 | 0.00 | 0.00 | 0.00 | 100 | 1008.2 |
| 20260508235351 | 103 | 119 | 0.0 | 3.5 | 0.00 | 0.00 | 0.00 | 100 | 1008.3 |
| 20260508235347 | 103 | 151 | 4.3 | 6.1 | 0.00 | 0.00 | 0.00 | 100 | 1008.2 |
| 20260508234341 | 103 | 119 | 0.0 | 3.5 | 0.00 | 0.00 | 0.00 | 100 | 1008.3 |
| 20260508233835 | 103 | 109 | 0.0 | 0.0 | 0.00 | 0.00 | 0.00 | 100 | 1008.2 |
| 20260508233329 | 103 | 109 | 0.0 | 0.0 | 0.00 | 0.00 | 0.00 | 100 | 1008.2 |
| 20260508232823 | 103 | 109 | 0.0 | 0.0 | 0.00 | 0.00 | 0.00 | 100 | 1008.2 |
| 20260508232319 | 103 | 109 | 0.0 | 0.0 | 0.00 | 0.00 | 0.00 | 100 | 1008.2 |
| 20260508231803 | 103 | 109 | 0.0 | 0.0 | 0.00 | 0.00 | 0.00 | 100 | 1008.2 |
| 20260508231302 | 103 | 109 | 0.0 | 0.0 | 0.00 | 0.00 | 0.00 | 100 | 1008.2 |
| 20260508230753 | 103 | 109 | 0.0 | 4.3 | 0.00 | 0.00 | 0.00 | 100 | 1008.2 |
| 20260508230249 | 103 | 109 | 0.0 | 5.2 | 0.00 | 0.00 | 0.00 | 100 | 1008.1 |
| 20260508225743 | 103 | 126 | 1.7 | 5.2 | 0.00 | 0.00 | 0.00 | 100 | 1008.1 |
| 20260508225245 | 103 | 102 | 0.0 | 5.2 | 0.00 | 0.00 | 0.00 | 100 | 1008.2 |
| 20260508224743 | 103 | 144 | 2.6 | 5.2 | 0.00 | 0.00 | 0.00 | 100 | 1008.2 |
| 20260508224243 | 103 | 144 | 0.0 | 5.2 | 0.00 | 0.00 | 0.00 | 100 | 1008.3 |
| 20260508223955 | 103 | 136 | 0.9 | 5.2 | 0.00 | 0.00 | 0.00 | 100 | 1008.2 |
| 20260508223224 | 104 | 122 | 2.6 | 7.8 | 0.00 | 0.00 | 0.00 | 100 | 1008.2 |
| 20260508222724 | 104 | 113 | 0.0 | 7.8 | 0.00 | 0.00 | 0.00 | 100 | 1008.3 |
| 20260508222456 | 104 | 87 | 0.0 | 5.2 | 0.00 | 0.00 | 0.00 | 100 | 1008.3 |
| 20260508221718 | 104 | 109 | 1.7 | 5.2 | 0.00 | 0.00 | 0.00 | 100 | 1008.2 |
| 20260508221218 | 104 | 158 | 2.6 | 4.3 | 0.00 | 0.00 | 0.00 | 100 | 1008.2 |
| 20260508220712 | 104 | 126 | 0.9 | 5.2 | 0.00 | 0.00 | 0.00 | 100 | 1008.2 |
| 20260508220213 | 104 | 126 | 0.0 | 7.0 | 0.00 | 0.00 | 0.00 | 100 | 1008.1 |
| 20260508215706 | 105 | 137 | 0.9 | 7.0 | 0.00 | 0.00 | 0.00 | 100 | 1008.2 |
| 20260508215206 | 105 | 122 | 1.7 | 5.2 | 0.00 | 0.00 | 0.00 | 100 | 1008.2 |
| 20260508214934 | 104 | 130 | 0.0 | 5.2 | 0.00 | 0.00 | 0.00 | 100 | 1008.3 |
| 20260508214203 | 104 | 130 | 2.6 | 5.2 | 0.00 | 0.00 | 0.00 | 100 | 1008.5 |
| 20260508213700 | 104 | 125 | 0.0 | 5.2 | 0.00 | 0.00 | 0.00 | 100 | 1008.5 |
| 20260508213159 | 104 | 132 | 2.6 | 5.2 | 0.00 | 0.00 | 0.00 | 100 | 1008.5 |
| 20260508212700 | 104 | 102 | 2.6 | 6.1 | 0.00 | 0.00 | 0.00 | 100 | 1008.5 |
| 20260508212159 | 104 | 105 | 0.9 | 6.1 | 0.00 | 0.00 | 0.00 | 100 | 1008.5 |
| 20260508211658 | 104 | 75 | 0.0 | 5.2 | 0.00 | 0.00 | 0.00 | 100 | 1008.6 |
| 20260508211154 | 104 | 120 | 0.0 | 4.3 | 0.00 | 0.00 | 0.00 | 100 | 1008.8 |
| 20260508210650 | 104 | 80 | 0.0 | 3.5 | 0.00 | 0.00 | 0.00 | 100 | 1008.9 |
| 20260508210143 | 104 | 80 | 0.0 | 5.2 | 0.00 | 0.00 | 0.00 | 100 | 1008.9 |
| 20260508205627 | 104 | 25 | 1.7 | 5.2 | 0.00 | 0.00 | 0.00 | 100 | 1008.9 |
| 20260508205123 | 103 | 156 | 0.9 | 5.2 | 0.00 | 0.00 | 0.00 | 100 | 1009.0 |
| 20260508204850 | 103 | 22 | 0.0 | 5.2 | 0.00 | 0.00 | 0.00 | 100 | 1009.1 |
| 20260508204113 | 103 | 130 | 0.0 | 7.0 | 0.00 | 0.00 | 0.00 | 100 | 1009.2 |
| 20260508203608 | 104 | 154 | 0.9 | 7.0 | 0.00 | 0.00 | 0.00 | 100 | 1009.2 |
| 20260508203108 | 104 | 11 | 1.7 | 7.0 | 0.00 | 0.00 | 0.00 | 100 | 1009.2 |
| 20260508202609 | 104 | 147 | 3.5 | 7.8 | 0.00 | 0.00 | 0.00 | 100 | 1009.2 |
| 20260508202103 | 105 | 129 | 0.0 | 7.8 | 0.00 | 0.00 | 0.00 | 100 | 1009.2 |
| 20260508201603 | 104 | 153 | 2.6 | 6.1 | 0.00 | 0.00 | 0.00 | 100 | 1009.2 |
| 20260508201104 | 105 | 16 | 0.9 | 7.8 | 0.00 | 0.00 | 0.00 | 100 | 1009.3 |
| 20260508201100 | 105 | 46 | 0.0 | 7.8 | 0.00 | 0.00 | 0.00 | 100 | 1009.3 |
| 20260508200329 | 105 | 68 | 1.7 | 5.2 | 0.00 | 0.00 | 0.00 | 100 | 1009.4 |
| 20260508195557 | 104 | 163 | 0.0 | 5.2 | 0.00 | 0.00 | 0.00 | 100 | 1009.5 |
| 20260508195048 | 103 | 118 | 2.6 | 4.3 | 0.00 | 0.00 | 0.00 | 100 | 1009.6 |
| 20260508194546 | 103 | 122 | 0.0 | 4.3 | 0.00 | 0.00 | 0.00 | 100 | 1009.7 |
| 20260508194046 | 103 | 82 | 0.0 | 4.3 | 0.00 | 0.00 | 0.00 | 100 | 1009.9 |
| 20260508193543 | 103 | 22 | 0.9 | 5.2 | 0.00 | 0.00 | 0.00 | 100 | 1009.9 |
| 20260508193042 | 103 | 73 | 0.0 | 5.2 | 0.00 | 0.00 | 0.00 | 100 | 1010.0 |
| 20260508192540 | 103 | 19 | 0.0 | 5.2 | 0.00 | 0.00 | 0.00 | 100 | 1010.0 |
| 20260508192040 | 103 | 126 | 0.9 | 4.3 | 0.00 | 0.00 | 0.00 | 100 | 1010.2 |
| 20260508191535 | 103 | 82 | 1.7 | 6.1 | 0.00 | 0.00 | 0.00 | 100 | 1010.2 |
| 20260508191030 | 104 | 109 | 2.6 | 6.1 | 0.00 | 0.00 | 0.00 | 100 | 1010.2 |
| 20260508190751 | 104 | 333 | 0.0 | 4.3 | 0.00 | 0.00 | 0.00 | 100 | 1010.3 |
| 20260508190021 | 105 | 12 | 1.7 | 5.2 | 0.00 | 0.00 | 0.00 | 100 | 1010.2 |
| 20260508185514 | 104 | 30 | 0.0 | 5.2 | 0.00 | 0.00 | 0.00 | 100 | 1010.3 |
| 20260508185013 | 104 | 136 | 0.0 | 4.3 | 0.00 | 0.00 | 0.00 | 100 | 1010.4 |
| 20260508184505 | 103 | 126 | 2.6 | 5.2 | 0.00 | 0.00 | 0.00 | 100 | 1010.4 |
| 20260508184236 | 103 | 54 | 0.0 | 5.2 | 0.00 | 0.00 | 0.00 | 100 | 1010.5 |
| 20260508183503 | 104 | 132 | 0.9 | 5.2 | 0.00 | 0.00 | 0.00 | 100 | 1010.6 |
| 20260508183001 | 103 | 165 | 3.5 | 5.2 | 0.00 | 0.00 | 0.00 | 100 | 1010.7 |
| 20260508182501 | 104 | 60 | 2.6 | 7.8 | 0.00 | 0.00 | 0.00 | 100 | 1010.7 |
| 20260508182001 | 103 | 68 | 3.5 | 7.8 | 0.00 | 0.00 | 0.00 | 100 | 1010.8 |
| 20260508181458 | 103 | 8 | 1.7 | 5.2 | 0.00 | 0.00 | 0.00 | 100 | 1010.9 |
| 20260508181229 | 103 | 91 | 0.0 | 5.2 | 0.00 | 0.00 | 0.00 | 100 | 1011.0 |
| 20260508180458 | 103 | 315 | 3.5 | 5.2 | 0.00 | 0.00 | 0.00 | 100 | 1011.1 |
| 20260508175957 | 103 | 210 | 1.7 | 4.3 | 0.00 | 0.00 | 0.00 | 100 | 1011.2 |
| 20260508175456 | 103 | 144 | 3.5 | 6.1 | 0.00 | 0.00 | 0.00 | 100 | 1011.1 |
| 20260508174957 | 103 | 158 | 0.9 | 6.1 | 0.00 | 0.00 | 0.00 | 100 | 1011.2 |
| 20260508174451 | 102 | 348 | 0.0 | 4.3 | 0.00 | 0.00 | 0.00 | 100 | 1011.3 |
| 20260508173950 | 103 | 310 | 0.9 | 4.3 | 0.00 | 0.00 | 0.00 | 100 | 1011.4 |
| 20260508173449 | 103 | 119 | 3.5 | 4.3 | 0.00 | 0.00 | 0.00 | 100 | 1011.4 |
| 20260508173220 | 103 | 78 | 0.0 | 4.3 | 0.00 | 0.00 | 0.00 | 100 | 1011.5 |
| 20260508172719 | 102 | 268 | 0.9 | 4.3 | 0.00 | 0.00 | 0.00 | 100 | 1011.6 |
| 20260508171944 | 102 | 322 | 3.5 | 6.1 | 0.00 | 0.00 | 0.00 | 100 | 1011.6 |
| 20260508171443 | 102 | 302 | 4.3 | 6.1 | 0.00 | 0.00 | 0.00 | 100 | 1011.6 |
| 20260508170943 | 101 | 337 | 2.6 | 4.3 | 0.00 | 0.00 | 0.00 | 100 | 1011.8 |
| 20260508170443 | 101 | 47 | 0.0 | 2.6 | 0.00 | 0.00 | 0.00 | 100 | 1011.8 |
| 20260508165934 | 101 | 47 | 0.0 | 5.2 | 0.00 | 0.00 | 0.00 | 100 | 1011.8 |
| 20260508165432 | 100 | 21 | 2.6 | 5.2 | 0.00 | 0.00 | 0.00 | 100 | 1011.9 |
| 20260508165203 | 100 | 81 | 0.0 | 5.2 | 0.00 | 0.00 | 0.00 | 100 | 1011.9 |
| 20260508164432 | 100 | 29 | 0.0 | 0.0 | 0.00 | 0.00 | 0.00 | 100 | 1012.1 |
| 20260508163924 | 99 | 29 | 0.0 | 0.0 | 0.00 | 0.00 | 0.00 | 100 | 1012.3 |
| 20260508163422 | 99 | 29 | 0.0 | 0.0 | 0.00 | 0.00 | 0.00 | 100 | 1012.3 |
| 20260508163418 | 99 | 29 | 0.0 | 0.0 | 0.00 | 0.00 | 0.00 | 100 | 1012.3 |
| 20260508162407 | 99 | 29 | 0.0 | 0.0 | 0.00 | 0.00 | 0.00 | 100 | 1012.5 |
| 20260508161844 | 99 | 29 | 0.0 | 0.0 | 0.00 | 0.00 | 0.00 | 100 | 1012.5 |
| 20260508161840 | 98 | 29 | 0.0 | 0.0 | 0.00 | 0.00 | 0.00 | 100 | 1012.4 |
| 20260508160832 | 99 | 29 | 0.0 | 0.0 | 0.00 | 0.00 | 0.00 | 100 | 1012.5 |
| 20260508160556 | 99 | 29 | 0.0 | 0.0 | 0.00 | 0.00 | 0.00 | 100 | 1012.6 |
| 20260508160043 | 99 | 29 | 0.0 | 0.0 | 0.00 | 0.00 | 0.00 | 100 | 1012.6 |
| 20260508155538 | 98 | 29 | 0.0 | 0.0 | 0.00 | 0.00 | 0.00 | 100 | 1012.6 |
| 20260508154802 | 98 | 29 | 0.0 | 0.0 | 0.00 | 0.00 | 0.00 | 100 | 1012.8 |
| 20260508154304 | 98 | 29 | 0.0 | 0.0 | 0.00 | 0.00 | 0.00 | 100 | 1012.8 |
| 20260508154300 | 98 | 29 | 0.0 | 0.0 | 0.00 | 0.00 | 0.00 | 100 | 1012.8 |
| 20260508153518 | 98 | 29 | 0.0 | 0.0 | 0.00 | 0.00 | 0.00 | 100 | 1013.0 |
| 20260508152740 | 98 | 29 | 0.0 | 0.0 | 0.00 | 0.00 | 0.00 | 100 | 1012.9 |
| 20260508152224 | 98 | 29 | 0.0 | 0.0 | 0.00 | 0.00 | 0.00 | 100 | 1012.9 |
| 20260508151721 | 97 | 29 | 0.0 | 0.0 | 0.00 | 0.00 | 0.00 | 100 | 1012.9 |
| 20260508151441 | 97 | 29 | 0.0 | 0.0 | 0.00 | 0.00 | 0.00 | 100 | 1013.0 |
| 20260508150909 | 97 | 29 | 0.0 | 0.0 | 0.00 | 0.00 | 0.00 | 100 | 1013.0 |